Current Weather Conditions: station 62153

sailwx.info

Wind from 190 at 8 knots

Wave height 1.2 meters (3 feet), 4 second period

Visibility: greater than 27.0 NM

Last reported at 2019-Jun-18 06:00 UTC.
Time now 2019-Jun-18 07:40 UTC

Location: N 57°18' E 002°00'.
View on Google Maps.

See reports from other nearby stations

  
Tides and Currents Weather Stations Pressure Air Temp Water Temp Dewpoint Dewpoint Depression Visibility Wind Speed Wind Dir Waves Ship Positions
date/time (UTC)wind fromknots sea level pressurealtimeterstation pressurevisibilityair tempwater tempwave heightnotes
2019-Jun-18 06:00 190 8 27.0 1.2
2019-Jun-18 05:00 190 7 27.0 1.3
2019-Jun-18 04:00 200 13 10.8 1.1
2019-Jun-18 03:00 190 8 10.8 1.2
2019-Jun-18 02:00 190 7 10.8 1.3
2019-Jun-18 01:00 210 14 10.8 1.4
2019-Jun-18 00:00 210 17 10.8 1.3
2019-Jun-17 23:00 190 11 10.8 1.6
2019-Jun-17 22:00 190 13 10.8 1.5
2019-Jun-17 21:00 190 13 10.8 1.7
2019-Jun-17 20:00 190 13 10.8 1.7
2019-Jun-17 19:00 190 13 10.8 1.6
2019-Jun-17 18:00 190 13 10.8 1.9
2019-Jun-17 17:00 190 13 10.8 1.8
2019-Jun-17 16:00 190 12 10.8 1.6
2019-Jun-17 15:00 200 13 10.8 1.5
2019-Jun-17 14:00 200 13 10.8 1.6
2019-Jun-17 13:00 200 13 10.8 1.6
2019-Jun-17 12:00 190 12 5.4 1.6
2019-Jun-17 11:00 190 12 10.8 1.5
2019-Jun-17 10:00 190 13 10.8 1.6
2019-Jun-17 09:00 190 13 10.8 1.4
2019-Jun-17 08:00 190 15 10.8 1.3
2019-Jun-17 07:00 190 17 10.8 1.2
2019-Jun-17 06:00 190 20 10.8 1.3
2019-Jun-17 05:00 180 20 5.4 1.3
2019-Jun-17 04:00 160 14 10.8 1.0
2019-Jun-17 03:00 150 13 10.8 1.0
2019-Jun-17 02:00 160 9 10.8 1.1
2019-Jun-17 01:00 160 8 5.4 1.0
2019-Jun-17 00:00 160 12 5.4 1.0
2019-Jun-16 23:00 190 7 10.8 1.1
2019-Jun-16 22:00 170 9 10.8 1.1
2019-Jun-16 21:00 170 11 10.8 0.7
2019-Jun-16 20:00 170 15 10.8 1.0
2019-Jun-16 19:00 170 19 10.8 0.9
2019-Jun-16 18:00 170 13 10.8 1.0
2019-Jun-16 17:00 190 14 10.8 1.0
2019-Jun-16 16:00 180 17 10.8 0.8
2019-Jun-16 15:00 180 15 10.8 0.8
2019-Jun-16 14:00 190 11 27.0 0.8
2019-Jun-16 13:00 190 9 27.0 0.8
2019-Jun-16 12:00 200 9 27.0 0.8
2019-Jun-16 11:00 200 9 27.0 0.8
2019-Jun-16 10:00 200 13 27.0 0.8
2019-Jun-16 09:00 200 12 10.8 0.8
2019-Jun-16 08:00 200 15 10.8 0.8
2019-Jun-16 07:00 200 12 27.0 0.8